Time,TemperatureF,DewpointF,PressureIn,WindDirection,WindDirectionDegrees,WindSpeedMPH,WindSpeedGustMPH,Humidity,HourlyPrecipIn,Conditions,Clouds,dailyrainin,SoftwareType,DateUTC
2013-04-11 00:02:00,43.0,-99.9,-100.00,North,-999,-999.0,-999.0,-999,0.01,,,0.01,,2013-04-11 06:02:00,
2013-04-11 00:12:00,43.0,-99.9,-100.00,North,-999,-999.0,-999.0,-999,0.01,,,0.01,,2013-04-11 06:12:00,
2013-04-11 00:22:00,43.0,-99.9,-100.00,North,-999,-999.0,-999.0,-999,0.01,,,0.01,,2013-04-11 06:22:00,
2013-04-11 01:30:00,43.0,-99.9,-100.00,North,-999,-999.0,-999.0,-999,0.01,,,0.02,,2013-04-11 07:30:00,
2013-04-11 02:03:00,43.0,-99.9,-100.00,North,-999,-999.0,-999.0,-999,0.01,,,0.02,,2013-04-11 08:03:00,
2013-04-11 02:12:00,43.0,-99.9,-100.00,North,-999,-999.0,-999.0,-999,0.01,,,0.02,,2013-04-11 08:12:00,
2013-04-11 02:22:00,43.0,-99.9,-100.00,North,-999,-999.0,-999.0,-999,0.01,,,0.02,,2013-04-11 08:22:00,
2013-04-11 03:30:00,43.0,-99.9,-100.00,North,-999,-999.0,-999.0,-999,-99.99,,,0.01,,2013-04-11 09:30:00,
2013-04-11 04:03:00,43.0,-99.9,-100.00,North,-999,-999.0,-999.0,-999,-99.99,,,0.01,,2013-04-11 10:03:00,
2013-04-11 04:13:00,43.0,-99.9,-100.00,North,-999,-999.0,-999.0,-999,-99.99,,,0.01,,2013-04-11 10:13:00,
2013-04-11 04:23:00,43.0,-99.9,-100.00,North,-999,-999.0,-999.0,-999,-99.99,,,0.01,,2013-04-11 10:23:00,
2013-04-11 04:30:00,40.0,-99.9,-100.00,North,-999,-999.0,-999.0,-999,0.00,,,0.01,,2013-04-11 10:30:00,
2013-04-11 05:13:00,40.0,-99.9,-100.00,North,-999,-999.0,-999.0,-999,0.00,,,0.01,,2013-04-11 11:13:00,
2013-04-11 05:23:00,40.0,-99.9,-100.00,North,-999,-999.0,-999.0,-999,0.00,,,0.01,,2013-04-11 11:23:00,
2013-04-11 05:30:00,40.0,-99.9,-100.00,North,-999,-999.0,-999.0,-999,0.00,,,0.00,,2013-04-11 11:30:00,
2013-04-11 06:02:00,40.0,-99.9,-100.00,North,-999,-999.0,-999.0,-999,0.00,,,0.00,,2013-04-11 12:02:00,
2013-04-11 06:13:00,40.0,-99.9,-100.00,North,-999,-999.0,-999.0,-999,0.00,,,0.00,,2013-04-11 12:13:00,
2013-04-11 07:30:00,41.0,-99.9,-100.00,North,-999,-999.0,-999.0,-999,0.01,,,0.02,,2013-04-11 13:30:00,
2013-04-11 08:03:00,41.0,-99.9,-100.00,North,-999,-999.0,-999.0,-999,0.01,,,0.02,,2013-04-11 14:03:00,
2013-04-11 08:13:00,41.0,-99.9,-100.00,North,-999,-999.0,-999.0,-999,0.01,,,0.02,,2013-04-11 14:13:00,
2013-04-11 08:22:00,41.0,-99.9,-100.00,North,-999,-999.0,-999.0,-999,0.01,,,0.02,,2013-04-11 14:22:00,
2013-04-11 10:30:00,49.0,-99.9,-100.00,North,-999,-999.0,-999.0,-999,-99.99,,,0.01,,2013-04-11 16:30:00,
2013-04-11 11:03:00,49.0,-99.9,-100.00,North,-999,-999.0,-999.0,-999,-99.99,,,0.01,,2013-04-11 17:03:00,
2013-04-11 11:13:00,49.0,-99.9,-100.00,North,-999,-999.0,-999.0,-999,-99.99,,,0.01,,2013-04-11 17:13:00,
2013-04-11 11:23:00,49.0,-99.9,-100.00,North,-999,-999.0,-999.0,-999,-99.99,,,0.01,,2013-04-11 17:23:00,
2013-04-11 11:30:00,52.0,-99.9,-100.00,North,-999,-999.0,-999.0,-999,-99.99,,,0.00,,2013-04-11 17:30:00,
2013-04-11 12:04:00,52.0,-99.9,-100.00,North,-999,-999.0,-999.0,-999,-99.99,,,0.00,,2013-04-11 18:04:00,
2013-04-11 12:13:00,52.0,-99.9,-100.00,North,-999,-999.0,-999.0,-999,-99.99,,,0.00,,2013-04-11 18:13:00,
2013-04-11 12:24:00,52.0,-99.9,-100.00,North,-999,-999.0,-999.0,-999,-99.99,,,0.00,,2013-04-11 18:24:00,
2013-04-11 12:30:00,55.0,-99.9,-100.00,North,-999,-999.0,-999.0,-999,0.02,,,0.03,,2013-04-11 18:30:00,
2013-04-11 13:04:00,55.0,-99.9,-100.00,North,-999,-999.0,-999.0,-999,0.02,,,0.03,,2013-04-11 19:04:00,
2013-04-11 13:14:00,55.0,-99.9,-100.00,North,-999,-999.0,-999.0,-999,0.02,,,0.03,,2013-04-11 19:14:00,
2013-04-11 13:23:00,55.0,-99.9,-100.00,North,-999,-999.0,-999.0,-999,0.02,,,0.03,,2013-04-11 19:23:00,
2013-04-11 13:30:00,55.0,-99.9,-100.00,North,-999,-999.0,-999.0,-999,0.01,,,0.03,,2013-04-11 19:30:00,
2013-04-11 14:03:00,55.0,-99.9,-100.00,North,-999,-999.0,-999.0,-999,0.01,,,0.03,,2013-04-11 20:03:00,
2013-04-11 14:13:00,55.0,-99.9,-100.00,North,-999,-999.0,-999.0,-999,0.01,,,0.03,,2013-04-11 20:13:00,
2013-04-11 14:23:00,55.0,-99.9,-100.00,North,-999,-999.0,-999.0,-999,0.01,,,0.03,,2013-04-11 20:23:00,
2013-04-11 14:30:00,56.0,-99.9,-100.00,North,-999,-999.0,-999.0,-999,0.00,,,0.03,,2013-04-11 20:30:00,
2013-04-11 15:04:00,56.0,-99.9,-100.00,North,-999,-999.0,-999.0,-999,0.00,,,0.03,,2013-04-11 21:04:00,
2013-04-11 15:13:00,56.0,-99.9,-100.00,North,-999,-999.0,-999.0,-999,0.00,,,0.03,,2013-04-11 21:13:00,
2013-04-11 15:23:00,56.0,-99.9,-100.00,North,-999,-999.0,-999.0,-999,0.00,,,0.03,,2013-04-11 21:23:00,
2013-04-11 15:30:00,57.0,-99.9,-100.00,North,-999,-999.0,-999.0,-999,-99.99,,,0.02,,2013-04-11 21:30:00,
2013-04-11 16:03:00,57.0,-99.9,-100.00,North,-999,-999.0,-999.0,-999,-99.99,,,0.02,,2013-04-11 22:03:00,
2013-04-11 16:14:00,57.0,-99.9,-100.00,North,-999,-999.0,-999.0,-999,-99.99,,,0.02,,2013-04-11 22:14:00,
2013-04-11 16:23:00,57.0,-99.9,-100.00,North,-999,-999.0,-999.0,-999,-99.99,,,0.02,,2013-04-11 22:23:00,
2013-04-11 16:30:00,57.0,-99.9,-100.00,North,-999,-999.0,-999.0,-999,0.00,,,0.02,,2013-04-11 22:30:00,
2013-04-11 17:04:00,57.0,-99.9,-100.00,North,-999,-999.0,-999.0,-999,0.00,,,0.02,,2013-04-11 23:04:00,
2013-04-11 17:13:00,57.0,-99.9,-100.00,North,-999,-999.0,-999.0,-999,0.00,,,0.02,,2013-04-11 23:13:00,
2013-04-11 17:23:00,57.0,-99.9,-100.00,North,-999,-999.0,-999.0,-999,0.00,,,0.02,,2013-04-11 23:23:00,
2013-04-11 17:30:00,58.0,-99.9,-100.00,North,-999,-999.0,-999.0,-999,-99.99,,,0.00,,2013-04-11 23:30:00,
2013-04-11 18:03:00,58.0,-99.9,-100.00,North,-999,-999.0,-999.0,-999,-99.99,,,0.00,,2013-04-12 00:03:00,
2013-04-11 18:12:00,58.0,-99.9,-100.00,North,-999,-999.0,-999.0,-999,-99.99,,,0.00,,2013-04-12 00:12:00,
2013-04-11 18:23:00,58.0,-99.9,-100.00,North,-999,-999.0,-999.0,-999,-99.99,,,0.00,,2013-04-12 00:23:00,
2013-04-11 18:30:00,55.0,-99.9,-100.00,North,-999,-999.0,-999.0,-999,0.00,,,0.00,,2013-04-12 00:30:00,
2013-04-11 19:03:00,55.0,-99.9,-100.00,North,-999,-999.0,-999.0,-999,0.00,,,0.00,,2013-04-12 01:03:00,
2013-04-11 19:12:00,55.0,-99.9,-100.00,North,-999,-999.0,-999.0,-999,0.00,,,0.00,,2013-04-12 01:12:00,
2013-04-11 19:23:00,55.0,-99.9,-100.00,North,-999,-999.0,-999.0,-999,0.00,,,0.00,,2013-04-12 01:23:00,
2013-04-11 19:30:00,54.0,-99.9,-100.00,North,-999,-999.0,-999.0,-999,0.00,,,-99.99,,2013-04-12 01:30:00,
2013-04-11 20:03:00,54.0,-99.9,-100.00,North,-999,-999.0,-999.0,-999,0.00,,,-99.99,,2013-04-12 02:03:00,
2013-04-11 20:13:00,54.0,-99.9,-100.00,North,-999,-999.0,-999.0,-999,0.00,,,-99.99,,2013-04-12 02:13:00,
2013-04-11 20:23:00,54.0,-99.9,-100.00,North,-999,-999.0,-999.0,-999,0.00,,,-99.99,,2013-04-12 02:23:00,
2013-04-11 20:30:00,48.0,-99.9,-100.00,North,-999,-999.0,-999.0,-999,-99.99,,,0.00,,2013-04-12 02:30:00,
2013-04-11 21:02:00,48.0,-99.9,-100.00,North,-999,-999.0,-999.0,-999,-99.99,,,0.00,,2013-04-12 03:02:00,
2013-04-11 21:12:00,48.0,-99.9,-100.00,North,-999,-999.0,-999.0,-999,-99.99,,,0.00,,2013-04-12 03:12:00,
2013-04-11 21:22:00,48.0,-99.9,-100.00,North,-999,-999.0,-999.0,-999,-99.99,,,0.00,,2013-04-12 03:22:00,
2013-04-11 21:30:00,46.0,-99.9,-100.00,North,-999,-999.0,-999.0,-999,0.01,,,0.01,,2013-04-12 03:30:00,
2013-04-11 22:03:00,46.0,-99.9,-100.00,North,-999,-999.0,-999.0,-999,0.01,,,0.01,,2013-04-12 04:03:00,
2013-04-11 22:13:00,46.0,-99.9,-100.00,North,-999,-999.0,-999.0,-999,0.01,,,0.01,,2013-04-12 04:13:00,
2013-04-11 22:23:00,46.0,-99.9,-100.00,North,-999,-999.0,-999.0,-999,0.01,,,0.01,,2013-04-12 04:23:00,
2013-04-11 22:30:00,43.0,-99.9,-100.00,North,-999,-999.0,-999.0,-999,-99.99,,,0.00,,2013-04-12 04:30:00,
2013-04-11 23:03:00,43.0,-99.9,-100.00,North,-999,-999.0,-999.0,-999,-99.99,,,0.00,,2013-04-12 05:03:00,
2013-04-11 23:12:00,43.0,-99.9,-100.00,North,-999,-999.0,-999.0,-999,-99.99,,,0.00,,2013-04-12 05:12:00,
2013-04-11 23:23:00,43.0,-99.9,-100.00,North,-999,-999.0,-999.0,-999,-99.99,,,0.00,,2013-04-12 05:23:00,
2013-04-11 23:30:00,41.0,-99.9,-100.00,North,-999,-999.0,-999.0,-999,0.01,,,0.00,,2013-04-12 05:30:00,